Time,TemperatureF,DewpointF,PressureIn,WindDirection,WindDirectionDegrees,WindSpeedMPH,WindSpeedGustMPH,Humidity,HourlyPrecipIn,Conditions,Clouds,dailyrainin,SoftwareType,DateUTC
2013-01-16 00:02:00,37.0,28.0,29.80,WSW,243,10.0,18.0,71,0.00,,,0.01,,2013-01-16 07:02:00,
2013-01-16 00:12:00,37.0,28.0,29.80,WSW,243,10.0,18.0,71,0.00,,,0.01,,2013-01-16 07:12:00,
2013-01-16 00:22:00,37.0,28.0,29.79,WSW,257,12.0,20.0,70,0.00,,,0.01,,2013-01-16 07:22:00,
2013-01-16 00:32:00,37.0,28.0,29.78,WSW,253,13.0,20.0,69,0.00,,,0.01,,2013-01-16 07:32:00,
2013-01-16 00:42:00,37.0,28.0,29.78,WSW,253,13.0,20.0,69,0.00,,,0.01,,2013-01-16 07:42:00,
2013-01-16 00:52:00,37.0,28.0,29.78,West,260,12.0,18.0,69,0.00,,,0.01,,2013-01-16 07:52:00,
2013-01-16 01:02:00,37.0,27.0,29.78,WSW,258,11.0,20.0,68,0.00,,,0.01,,2013-01-16 08:02:00,
2013-01-16 01:12:00,37.0,27.0,29.78,WSW,258,11.0,20.0,68,0.00,,,0.01,,2013-01-16 08:12:00,
2013-01-16 01:22:00,37.0,27.0,29.78,West,263,11.0,22.0,68,0.00,,,0.01,,2013-01-16 08:22:00,
2013-01-16 01:32:00,37.0,27.0,29.78,WSW,255,10.0,20.0,68,0.00,,,0.01,,2013-01-16 08:32:00,
2013-01-16 01:42:00,37.0,27.0,29.78,WSW,255,10.0,20.0,68,0.00,,,0.01,,2013-01-16 08:42:00,
2013-01-16 01:53:00,38.0,28.0,29.78,WSW,256,10.0,20.0,68,0.00,,,0.01,,2013-01-16 08:53:00,
2013-01-16 02:02:00,38.0,28.0,29.78,WSW,251,13.0,21.0,67,0.00,,,0.01,,2013-01-16 09:02:00,
2013-01-16 02:12:00,38.0,28.0,29.78,WSW,251,13.0,21.0,67,0.00,,,0.01,,2013-01-16 09:12:00,
2013-01-16 02:22:00,38.0,28.0,29.78,WSW,252,14.0,22.0,67,0.00,,,0.01,,2013-01-16 09:22:00,
2013-01-16 02:32:00,38.0,28.0,29.79,WSW,252,14.0,24.0,67,0.00,,,0.01,,2013-01-16 09:32:00,
2013-01-16 02:42:00,38.0,28.0,29.79,WSW,252,14.0,24.0,67,0.00,,,0.01,,2013-01-16 09:42:00,
2013-01-16 02:53:00,38.0,28.0,29.80,WSW,241,13.0,21.0,66,0.00,,,0.01,,2013-01-16 09:53:00,
2013-01-16 03:02:00,38.0,28.0,29.80,WNW,282,11.0,20.0,66,0.00,,,0.01,,2013-01-16 10:02:00,
2013-01-16 03:12:00,38.0,28.0,29.80,WNW,282,11.0,20.0,66,0.00,,,0.01,,2013-01-16 10:12:00,
2013-01-16 03:22:00,38.0,28.0,29.80,West,274,11.0,20.0,66,0.00,,,0.01,,2013-01-16 10:22:00,
2013-01-16 03:32:00,38.0,28.0,29.80,West,270,13.0,18.0,66,0.00,,,0.01,,2013-01-16 10:32:00,
2013-01-16 03:42:00,38.0,28.0,29.80,West,270,13.0,18.0,66,0.00,,,0.01,,2013-01-16 10:42:00,
2013-01-16 03:53:00,38.0,28.0,29.80,WSW,256,13.0,20.0,66,0.00,,,0.01,,2013-01-16 10:53:00,
2013-01-16 04:02:00,38.0,28.0,29.81,WSW,255,11.0,15.0,66,0.00,,,0.01,,2013-01-16 11:02:00,
2013-01-16 04:12:00,38.0,28.0,29.81,WSW,255,11.0,15.0,66,0.00,,,0.01,,2013-01-16 11:12:00,
2013-01-16 04:22:00,38.0,28.0,29.81,West,259,9.0,17.0,67,0.00,,,0.01,,2013-01-16 11:22:00,
2013-01-16 04:32:00,38.0,28.0,29.81,West,261,6.0,14.0,68,0.00,,,0.01,,2013-01-16 11:32:00,
2013-01-16 04:42:00,38.0,28.0,29.81,West,261,6.0,14.0,68,0.00,,,0.01,,2013-01-16 11:42:00,
2013-01-16 04:53:00,37.0,28.0,29.81,WSW,250,5.0,14.0,69,0.00,,,0.01,,2013-01-16 11:53:00,
2013-01-16 05:03:00,37.0,28.0,29.82,West,264,6.0,12.0,69,0.00,,,0.01,,2013-01-16 12:03:00,
2013-01-16 05:13:00,37.0,28.0,29.82,West,264,6.0,12.0,69,0.00,,,0.01,,2013-01-16 12:13:00,
2013-01-16 05:22:00,37.0,28.0,29.82,WSW,251,7.0,12.0,69,0.00,,,0.01,,2013-01-16 12:22:00,
2013-01-16 05:33:00,37.0,28.0,29.82,WSW,257,7.0,14.0,70,0.00,,,0.01,,2013-01-16 12:33:00,
2013-01-16 05:43:00,37.0,28.0,29.82,WSW,257,7.0,14.0,70,0.00,,,0.01,,2013-01-16 12:43:00,
2013-01-16 05:53:00,37.0,28.0,29.82,WSW,258,9.0,18.0,70,0.00,,,0.01,,2013-01-16 12:53:00,
2013-01-16 06:03:00,37.0,28.0,29.82,WSW,255,8.0,17.0,70,0.00,,,0.01,,2013-01-16 13:03:00,
2013-01-16 06:12:00,37.0,28.0,29.82,WSW,255,8.0,17.0,70,0.00,,,0.01,,2013-01-16 13:12:00,
2013-01-16 06:22:00,37.0,29.0,29.84,West,260,10.0,17.0,72,0.00,,,0.01,,2013-01-16 13:22:00,
2013-01-16 06:33:00,37.0,29.0,29.85,West,263,8.0,16.0,72,0.00,,,0.01,,2013-01-16 13:33:00,
2013-01-16 06:43:00,37.0,29.0,29.85,West,263,8.0,16.0,72,0.00,,,0.01,,2013-01-16 13:43:00,
2013-01-16 06:53:00,37.0,29.0,29.85,West,271,8.0,18.0,72,0.00,,,0.01,,2013-01-16 13:53:00,
2013-01-16 07:03:00,37.0,28.0,29.85,West,271,9.0,17.0,71,0.00,,,0.01,,2013-01-16 14:03:00,
2013-01-16 07:12:00,37.0,28.0,29.85,West,271,9.0,17.0,71,0.00,,,0.01,,2013-01-16 14:12:00,
2013-01-16 07:22:00,37.0,28.0,29.87,West,268,10.0,17.0,71,0.00,,,0.01,,2013-01-16 14:22:00,
2013-01-16 07:32:00,37.0,29.0,29.87,West,272,8.0,14.0,73,0.00,,,0.01,,2013-01-16 14:32:00,
2013-01-16 07:42:00,37.0,29.0,29.87,West,272,8.0,14.0,73,0.00,,,0.01,,2013-01-16 14:42:00,
2013-01-16 07:53:00,37.0,29.0,29.87,West,265,7.0,16.0,73,0.00,,,0.01,,2013-01-16 14:53:00,
2013-01-16 08:03:00,37.0,29.0,29.87,WSW,255,6.0,14.0,73,0.00,,,0.01,,2013-01-16 15:03:00,
2013-01-16 08:12:00,37.0,29.0,29.87,WSW,255,6.0,14.0,73,0.00,,,0.01,,2013-01-16 15:12:00,
2013-01-16 08:22:00,37.0,29.0,29.90,West,265,11.0,18.0,72,0.00,,,0.01,,2013-01-16 15:22:00,
2013-01-16 08:33:00,38.0,29.0,29.91,WSW,250,6.0,13.0,70,0.00,,,0.01,,2013-01-16 15:33:00,
2013-01-16 08:43:00,38.0,29.0,29.91,WSW,250,6.0,13.0,70,0.00,,,0.01,,2013-01-16 15:43:00,
2013-01-16 08:53:00,39.0,29.0,29.91,WNW,282,16.0,26.0,68,0.00,,,0.01,,2013-01-16 15:53:00,
2013-01-16 09:03:00,40.0,31.0,29.91,WNW,284,17.0,28.0,70,0.00,,,0.01,,2013-01-16 16:03:00,
2013-01-16 09:12:00,40.0,31.0,29.91,WNW,284,17.0,28.0,70,0.00,,,0.01,,2013-01-16 16:12:00,
2013-01-16 09:22:00,40.0,32.0,29.93,West,281,12.0,28.0,72,0.00,,,0.01,,2013-01-16 16:22:00,
2013-01-16 09:33:00,39.0,31.0,29.93,WSW,256,13.0,20.0,72,0.00,,,0.01,,2013-01-16 16:33:00,
2013-01-16 09:42:00,39.0,31.0,29.93,WSW,256,13.0,20.0,72,0.00,,,0.01,,2013-01-16 16:42:00,
2013-01-16 09:53:00,39.0,30.0,29.93,West,262,9.0,20.0,71,0.00,,,0.01,,2013-01-16 16:53:00,
2013-01-16 10:03:00,38.0,30.0,29.96,West,259,10.0,14.0,72,0.00,,,0.01,,2013-01-16 17:03:00,
2013-01-16 10:12:00,38.0,30.0,29.96,West,259,10.0,14.0,72,0.00,,,0.01,,2013-01-16 17:12:00,
2013-01-16 10:22:00,37.0,29.0,29.97,West,277,3.0,13.0,74,0.00,,,0.01,,2013-01-16 17:22:00,
2013-01-16 10:33:00,37.0,29.0,29.97,SW,234,5.0,9.0,73,0.00,,,0.01,,2013-01-16 17:33:00,
2013-01-16 10:43:00,37.0,29.0,29.97,SW,234,5.0,9.0,73,0.00,,,0.01,,2013-01-16 17:43:00,
2013-01-16 10:53:00,39.0,30.0,29.98,WSW,245,10.0,16.0,70,0.00,,,0.01,,2013-01-16 17:53:00,
2013-01-16 11:02:00,39.0,30.0,29.98,West,266,9.0,15.0,69,0.00,,,0.01,,2013-01-16 18:02:00,
2013-01-16 11:12:00,39.0,30.0,29.98,West,266,9.0,15.0,69,0.00,,,0.01,,2013-01-16 18:12:00,
2013-01-16 11:23:00,39.0,29.0,29.99,WSW,243,8.0,18.0,67,0.00,,,0.00,,2013-01-16 18:23:00,
2013-01-16 11:33:00,39.0,29.0,29.99,WSW,251,6.0,15.0,67,0.00,,,0.00,,2013-01-16 18:33:00,
2013-01-16 11:42:00,39.0,29.0,29.99,WSW,251,6.0,15.0,67,0.00,,,0.00,,2013-01-16 18:42:00,
2013-01-16 11:53:00,40.0,29.0,29.99,WSW,247,10.0,16.0,65,0.00,,,0.00,,2013-01-16 18:53:00,
2013-01-16 12:03:00,40.0,30.0,29.99,WSW,243,5.0,13.0,66,0.00,,,0.00,,2013-01-16 19:03:00,
2013-01-16 12:12:00,40.0,30.0,29.99,WSW,243,5.0,13.0,66,0.00,,,0.00,,2013-01-16 19:12:00,
2013-01-16 12:23:00,39.0,30.0,29.99,WSW,242,14.0,22.0,69,0.00,,,0.00,,2013-01-16 19:23:00,
2013-01-16 12:33:00,40.0,30.0,29.99,West,265,7.0,13.0,67,0.00,,,0.00,,2013-01-16 19:33:00,
2013-01-16 12:43:00,40.0,30.0,29.99,West,265,7.0,13.0,67,0.00,,,0.00,,2013-01-16 19:43:00,
2013-01-16 12:53:00,38.0,30.0,30.00,WSW,247,10.0,20.0,72,0.00,,,0.00,,2013-01-16 19:53:00,
2013-01-16 13:03:00,39.0,30.0,30.00,West,263,10.0,18.0,70,0.00,,,0.00,,2013-01-16 20:03:00,
2013-01-16 13:12:00,39.0,30.0,30.00,West,263,10.0,18.0,70,0.00,,,0.00,,2013-01-16 20:12:00,
2013-01-16 13:23:00,39.0,30.0,30.00,WSW,257,7.0,20.0,70,0.00,,,0.00,,2013-01-16 20:23:00,
2013-01-16 13:33:00,39.0,30.0,30.00,WSW,257,10.0,16.0,70,0.00,,,0.00,,2013-01-16 20:33:00,
2013-01-16 13:42:00,39.0,30.0,30.00,WSW,257,10.0,16.0,70,0.00,,,0.00,,2013-01-16 20:42:00,
2013-01-16 13:53:00,39.0,31.0,30.01,SW,232,9.0,15.0,72,0.00,,,0.00,,2013-01-16 20:53:00,
2013-01-16 14:02:00,38.0,31.0,30.01,SW,229,9.0,14.0,75,0.00,,,0.00,,2013-01-16 21:02:00,
2013-01-16 14:12:00,38.0,31.0,30.01,SW,229,9.0,14.0,75,0.00,,,0.00,,2013-01-16 21:12:00,
2013-01-16 14:22:00,37.0,30.0,30.01,West,267,6.0,14.0,75,0.00,,,0.00,,2013-01-16 21:22:00,
2013-01-16 14:33:00,38.0,30.0,30.01,WSW,254,10.0,14.0,73,0.00,,,0.00,,2013-01-16 21:33:00,
2013-01-16 14:43:00,38.0,30.0,30.01,WSW,254,10.0,14.0,73,0.00,,,0.00,,2013-01-16 21:43:00,
2013-01-16 14:53:00,37.0,30.0,30.02,WSW,250,6.0,13.0,76,0.00,,,0.00,,2013-01-16 21:53:00,
2013-01-16 15:02:00,37.0,30.0,30.03,West,261,7.0,12.0,76,0.00,,,0.00,,2013-01-16 22:02:00,
2013-01-16 15:12:00,37.0,30.0,30.03,West,261,7.0,12.0,76,0.00,,,0.00,,2013-01-16 22:12:00,
2013-01-16 15:22:00,37.0,29.0,30.04,WSW,254,9.0,15.0,73,0.00,,,0.00,,2013-01-16 22:22:00,
2013-01-16 15:33:00,37.0,29.0,30.04,West,265,7.0,16.0,73,0.00,,,0.00,,2013-01-16 22:33:00,
2013-01-16 15:43:00,37.0,29.0,30.04,West,265,7.0,16.0,73,0.00,,,0.00,,2013-01-16 22:43:00,
2013-01-16 15:53:00,37.0,29.0,30.04,WSW,254,7.0,15.0,74,0.00,,,0.00,,2013-01-16 22:53:00,
2013-01-16 16:02:00,37.0,29.0,30.06,West,271,8.0,15.0,74,0.00,,,0.00,,2013-01-16 23:02:00,
2013-01-16 16:12:00,37.0,29.0,30.06,West,259,9.0,15.0,74,0.00,,,0.00,,2013-01-16 23:12:00,
2013-01-16 16:23:00,37.0,29.0,30.06,West,259,9.0,15.0,74,0.00,,,0.00,,2013-01-16 23:23:00,
2013-01-16 16:32:00,36.0,29.0,30.07,West,262,10.0,16.0,74,0.00,,,0.00,,2013-01-16 23:32:00,
2013-01-16 16:42:00,36.0,29.0,30.07,West,262,10.0,16.0,74,0.00,,,0.00,,2013-01-16 23:42:00,
2013-01-16 16:53:00,36.0,29.0,30.07,West,275,8.0,16.0,74,0.00,,,0.00,,2013-01-16 23:53:00,
2013-01-16 17:02:00,36.0,29.0,30.07,West,275,8.0,16.0,74,0.00,,,0.00,,2013-01-17 00:02:00,
2013-01-16 17:12:00,36.0,29.0,30.07,West,275,8.0,16.0,74,0.00,,,0.00,,2013-01-17 00:12:00,
2013-01-16 17:22:00,36.0,29.0,30.08,West,270,6.0,14.0,74,0.00,,,0.00,,2013-01-17 00:22:00,
2013-01-16 17:32:00,36.0,29.0,30.08,West,270,6.0,14.0,74,0.00,,,0.00,,2013-01-17 00:32:00,
2013-01-16 17:42:00,36.0,29.0,30.08,West,270,6.0,14.0,74,0.00,,,0.00,,2013-01-17 00:42:00,
2013-01-16 17:52:00,36.0,29.0,30.09,West,277,5.0,10.0,76,0.00,,,0.00,,2013-01-17 00:52:00,
2013-01-16 18:02:00,36.0,29.0,30.10,WNW,294,5.0,10.0,76,0.00,,,0.00,,2013-01-17 01:02:00,
2013-01-16 18:12:00,36.0,29.0,30.10,WNW,294,5.0,10.0,76,0.00,,,0.00,,2013-01-17 01:12:00,
2013-01-16 18:22:00,35.0,29.0,30.10,WNW,302,3.0,10.0,77,0.00,,,0.00,,2013-01-17 01:22:00,
2013-01-16 18:32:00,35.0,29.0,30.10,WNW,302,1.0,3.0,78,0.00,,,0.00,,2013-01-17 01:32:00,
2013-01-16 18:42:00,35.0,29.0,30.10,WNW,302,1.0,3.0,78,0.00,,,0.00,,2013-01-17 01:42:00,
2013-01-16 18:52:00,34.0,28.0,30.11,WNW,302,0.0,3.0,80,0.00,,,0.00,,2013-01-17 01:52:00,
2013-01-16 19:02:00,33.0,28.0,30.11,WNW,302,1.0,2.0,81,0.00,,,0.00,,2013-01-17 02:02:00,
2013-01-16 19:12:00,33.0,28.0,30.11,WNW,302,1.0,2.0,81,0.00,,,0.00,,2013-01-17 02:12:00,
2013-01-16 19:22:00,33.0,28.0,30.11,WNW,302,0.0,2.0,82,0.00,,,0.00,,2013-01-17 02:22:00,
2013-01-16 19:32:00,33.0,28.0,30.11,WNW,302,0.0,2.0,82,0.00,,,0.00,,2013-01-17 02:32:00,
2013-01-16 19:42:00,33.0,28.0,30.11,WNW,302,0.0,2.0,82,0.00,,,0.00,,2013-01-17 02:42:00,
2013-01-16 19:52:00,33.0,28.0,30.11,WNW,302,0.0,2.0,82,0.00,,,0.00,,2013-01-17 02:52:00,
2013-01-16 20:02:00,33.0,28.0,30.14,WNW,301,3.0,3.0,83,0.00,,,0.00,,2013-01-17 03:02:00,
2013-01-16 20:12:00,33.0,28.0,30.14,WNW,301,3.0,3.0,83,0.00,,,0.00,,2013-01-17 03:12:00,
2013-01-16 20:22:00,34.0,29.0,30.14,WSW,251,6.0,10.0,82,0.00,,,0.00,,2013-01-17 03:22:00,
2013-01-16 20:32:00,35.0,30.0,30.15,West,261,7.0,12.0,81,0.00,,,0.00,,2013-01-17 03:32:00,
2013-01-16 20:42:00,35.0,30.0,30.15,West,261,7.0,12.0,81,0.00,,,0.00,,2013-01-17 03:42:00,
2013-01-16 20:52:00,35.0,29.0,30.15,WSW,255,3.0,9.0,80,0.00,,,0.00,,2013-01-17 03:52:00,
2013-01-16 21:02:00,35.0,29.0,30.15,West,272,7.0,12.0,79,0.00,,,0.00,,2013-01-17 04:02:00,
2013-01-16 21:12:00,35.0,29.0,30.15,WSW,252,5.0,12.0,78,0.00,,,0.00,,2013-01-17 04:12:00,
2013-01-16 21:22:00,35.0,29.0,30.15,WSW,252,5.0,12.0,78,0.00,,,0.00,,2013-01-17 04:22:00,
2013-01-16 21:32:00,35.0,29.0,30.15,West,268,5.0,9.0,78,0.00,,,0.00,,2013-01-17 04:32:00,
2013-01-16 21:42:00,35.0,29.0,30.15,West,268,5.0,9.0,78,0.00,,,0.00,,2013-01-17 04:42:00,
2013-01-16 21:52:00,36.0,29.0,30.16,West,269,7.0,14.0,77,0.00,,,0.00,,2013-01-17 04:52:00,
2013-01-16 22:04:00,36.0,29.0,30.16,West,269,5.0,12.0,77,0.00,,,0.00,,2013-01-17 05:04:00,
2013-01-16 22:12:00,36.0,29.0,30.16,West,269,5.0,12.0,77,0.00,,,0.00,,2013-01-17 05:12:00,
2013-01-16 22:22:00,36.0,29.0,30.16,WSW,248,5.0,12.0,77,0.00,,,0.00,,2013-01-17 05:22:00,
2013-01-16 22:33:00,35.0,29.0,30.16,WSW,252,7.0,12.0,77,0.00,,,0.00,,2013-01-17 05:33:00,
2013-01-16 22:42:00,35.0,29.0,30.16,WSW,252,7.0,12.0,77,0.00,,,0.00,,2013-01-17 05:42:00,
2013-01-16 22:53:00,35.0,29.0,30.17,West,261,6.0,12.0,78,0.00,,,0.00,,2013-01-17 05:53:00,
2013-01-16 23:02:00,35.0,29.0,30.18,West,261,6.0,12.0,79,0.00,,,0.00,,2013-01-17 06:02:00,
2013-01-16 23:12:00,35.0,29.0,30.18,West,261,6.0,12.0,79,0.00,,,0.00,,2013-01-17 06:12:00,
2013-01-16 23:22:00,35.0,29.0,30.18,WSW,250,4.0,10.0,79,0.00,,,0.00,,2013-01-17 06:22:00,
2013-01-16 23:32:00,35.0,29.0,30.18,WSW,250,6.0,10.0,80,0.00,,,0.00,,2013-01-17 06:32:00,
2013-01-16 23:42:00,35.0,29.0,30.18,WSW,250,6.0,10.0,80,0.00,,,0.00,,2013-01-17 06:42:00,
2013-01-16 23:52:00,35.0,29.0,30.19,West,264,3.0,9.0,80,0.00,,,0.00,,2013-01-17 06:52:00,